Location: ????????
(55.4000°N, 39.1167°E)
Time: 18:10:45
(UTC+00:00)

Cosmos 2221 - Pass Details

Date: 19 May 2025
Orbit: 572 x 593 km, 82.5° (Epoch: 20 June)

Event Time Altitude Azimuth Distance (km) Brightness Sun altitude
Exits shadow 18:24:57 - 143° (SE) 2,095 4.6 -6.0°
Reaches altitude 10° 18:25:34 10° 138° (SE) 1,894 4.4 -6.1°
Maximum altitude 18:28:50 23° 87° (E) 1,268 3.8 -6.4°
Drops below altitude 10° 18:32:06 10° 35° (NE) 1,898 5.3 -6.7°
Sets 18:34:38 0° 21° (NNE) 2,800 6.4 -6.9°
